Find the Weather for any City, State or Zip Code, or Country:


Mobile Weather


Questions? Comments?
Contact Greg


Winchester Trails
Subdivision Website


Current Maps

Tropical (Hurricane)

Temperature

Heat Index

Windchill

Humidity

Radar

Dew Point

Wind

Visibility

Visible Satellite

Satellite

Fronts

Jet Stream

Flight Rules


Forecast Maps

Temperature Forecast

Maximum Temperature Forecast

Minimum Temperature Forecast

Dewpoint Forecast

Prevalent Weather

12Hr Probability of Precip.

Sky Cover


Health Maps

Houston Pollen/Mold Report

UV Forecast

Air Quality

Peak Air Quality Index


Miscellaneous

NOAA Aviation Weather

NWS Houston/Galveston

National Weather Service (main page)

National Hurricane Center

NOAA Historical Hurricane Tracks

Wunderground
Hurricane Archive


Harris Co. Flood Warning System

Harris Co. Storm Risk Calculator

U.S. Drought Monitor

TX Lake/Reservoir Data & Levels

Eric 'SciGuy' Berger Weather Blog

Dr. Jeff Masters Weather Blog

Houston Traffic

TxDOT Highway Conditions

Houston Electricity Outage Tracker

Houston Bayport Cruise Terminal Webcam

Galveston CruiseCam


This Station's Data

NOAA-Style Reports

Weather Detail

Daily Tabular Data


This Station's Position:
Lat. 29° 54' 14.18" N
Lon. 95° 34' 24.45" W
Elevation 112 ft (34.1 m)


Visit this station's partner in Cypress, 8sm west of here!


Weather Instruments:


Vantage Pro 2


Current Weather Conditions

This page refreshes automatically every 5 minutes and is best viewed at 1024x768 or higher resolution.
Powered by Ambient Weather Virtual Weather Station V15.00

Page last refreshed Thu November 27, 2014 at 1:12 pm CST (UTC -6) (2014-11-27 19:12 UTC/GMT/Zulu)

Metric & Other Conversions for Current Observations
Current Temp17.2 °CHigh Temp17.2 °CLow Temp6.8 °C
Current Dew Point2 °CHeat Index16.9 °CWind Chill17.2 °C
Barometer1031.54 mbarBarometer773.7 mmHgBarometer14.96 psi
Density Altitude:  -195 ft (-59.4 m)Pressure Altitude:  -382 ft (-116.4 m)
Barometer readings for a Standard Day (59.0 °F/15.0 °C @ sea level):  29.92" Hg, 1013.25 mbar, 757.83 mmHg, 14.70 psi


No Warnings, Watches, or Advisories for Harris and surrounding counties.


Local Radar Other Radar Graphics Local Satellite
Click for larger image WunderMap®

High Definition Radar (KHOU)

Regional Radar
Click for larger image
Radar & Satellite Graphics by Weather Underground




National Weather Service Forecast for: Jersey Village TX
Issued by: National Weather Service Houston, TX
Updated: 12:20 pm CST Nov 27, 2014
 
Thanksgiving
Day

Sunny
Sunny
Tonight

Mostly Clear
Mostly
Clear
Friday

Sunny
Sunny
Friday
Night

Partly Cloudy
Partly
Cloudy
Saturday

Mostly Sunny
Mostly
Sunny
Saturday
Night

Mostly Cloudy
Mostly
Cloudy
Sunday

Slight Chc Rain. Chance for Measurable Precipitation 20%
Slight Chc
Rain
Sunday
Night

Mostly Cloudy
Mostly
Cloudy
Monday

Slight Chc Showers. Chance for Measurable Precipitation 20%
Slight Chc
Showers
Hi 64 °F Lo 42 °F Hi 70 °F Lo 56 °F Hi 76 °F Lo 63 °F Hi 78 °F Lo 62 °F Hi 73 °F

 

Thanksgiving Day
 
Sunny, with a high near 64. Northeast wind 5 to 10 mph.
Tonight
 
Mostly clear, with a low around 42. East wind around 5 mph.
Friday
 
Sunny, with a high near 70. Southeast wind 5 to 10 mph.
Friday Night
 
Partly cloudy, with a low around 56. South wind 5 to 10 mph.
Saturday
 
Mostly sunny, with a high near 76. South wind 5 to 15 mph, with gusts as high as 20 mph.
Saturday Night
 
Mostly cloudy, with a low around 63.
Sunday
 
A 20 percent chance of rain. Partly sunny, with a high near 78.
Sunday Night
 
Mostly cloudy, with a low around 62.
Monday
 
A 20 percent chance of showers. Partly sunny, with a high near 73.
Monday Night
 
A 20 percent chance of showers. Mostly cloudy, with a low around 53.
Tuesday
 
A 20 percent chance of showers. Partly sunny, with a high near 67.
Tuesday Night
 
A 20 percent chance of showers. Mostly cloudy, with a low around 57.
Wednesday
 
A 20 percent chance of showers. Partly sunny, with a high near 73.

 

Forecast from NOAA-NWS for Jersey Village TX.

Follow this link for a current verbose area forecast discussion from the NWS.
Forecast Script by Saratoga Weather | Animated icons by Meteo Treviglio


Radar and Satellite Imagery


US Current Fronts w/Radar

Southcentral Infrared Satellite

US Jet Stream

Visible Satellite
Click to go to WUnderground
Sea Surface Temp & Tropical System Map
Map Graphics by Weather Underground


Rainfall Information
Yesterday's Rain: 0 in
Last Rainfall:
Surrounding Area Rainfall Data
NOAA Avg. Rainfall For: Month to Date
(1971-2000)
Month to Date
(1981-2010)
Year to Date
(1971-2000)
Year to Date
(1981-2010)
Jersey Village: 4.04 in
(-1.04 in)
4.18 in
(-1.18 in)
45.92 in
(-7.35 in)
47.94 in
(-9.37 in)
Intercontinental (KIAH) 3.8 in 3.9 in 43.76 in 45.59 in
Hobby (KHOU) 4.13 in 3.9 in 49.77 in 50.2 in
NOTE:  The numbers in parenthesis under the Jersey Village data above indicate how far ahead (green) or behind (red) this station's rain total is compared to the NOAA 1971-2000 and 1981-2010 climate normals data for today's date (Nov 27).


Other Current Regional Observations (METARs)

(Ordered by straight-line statute mile distance from this weather station)

A Few More Observations/METARs of Interest to Greg


Weather Almanac

NOAA/NWS Daily Historical Weather Browser
Major SE Texas Weather Events

Records and Normals for Nov 27
Temperature Forecast Normal Record
High 63° 66° 87°
(1945)
Low 41°
43°
21°
(1938)
Highs & Lows Observed at This Station
  Today Yesterday For 11/2014 For 2014
High Temp 62.9°F at 1:09pm 72.1°F at 2:37pm 81.7°F on 11/4/14 97.6°F on 9/11/14
Low Temp 44.2°F at 4:21am 44.9°F at 1:34am 32.6°F on 11/19/14 32.6°F on 11/19/14
High Dew Point 42.7°F at 12:04am 44.5°F at 10:38pm 68.4°F on 11/4/14 79.4°F on 9/16/14
Low Dew Point 32.1°F at 11:20am 37.1°F at 1:26am 17.5°F on 11/14/14 17.5°F on 11/14/14
High Humidity 89% at 2:15am 81% at 11:58pm 96% on 11/6/14 96% on 11/6/14
Low Humidity 35% at 12:15pm 33% at 12:54pm 28% on 11/25/14 28% on 11/25/14
High Heat Index 62.5°F at 1:09pm 71.7°F at 3:33pm 84.2°F on 11/4/14 110.8°F on 9/10/14
High Barometer 30.40in at 9:59am 30.22in at 11:44pm 30.45in on 11/18/14 30.45in on 11/18/14
Low Barometer 30.22in at 12:00am 30.05in at 1:44pm 29.41in on 11/23/14 29.41in on 11/23/14
High Wind Speed 9mph at 9:01am 20mph at 12:12pm 20mph on 11/17/14 27mph on 10/6/14
High Wind Gust 10mph at 9:01am 20mph at 12:12pm 20mph on 11/17/14 27mph on 10/6/14
Low Wind Chill 43.9°F at 6:38am 43.3°F at 6:49am 24.3°F on 11/13/14 24.3°F on 11/13/14

Sun & Moon
Sunrise:  6:57am Sunset:  5:23pm Moon Phase:
26%
Moonrise:  11:23am Moonset:  10:52pm
Star Chart...

 

Local Trend Graphs


MesoNet Local Weather Exchange® Network

Station ID

City 
(Click for Map Location)

Neighborhood 
(Click for History)
Last Update
(Date & Time)

Temp
 (°)

Dew
Point (°)
Humidity 
(%)
Wind 
(mph)
From
the
Gust
(mph) 
Pressure (in) Hourly
Rain (in)
KTXHOUST61 Houston Willow Point 11/27 13:09:22 65.8 21.0 18 0 South 0 30.36 0.00
KTXHOUST186 Houston Winchester Trails 11/27 13:09:58 62.9 36.0 36 4 ENE 5 30.46 0.00
KTXHOUST213 Houston 18220 Tomball Parkway 11/27 13:02:38 64.0 30.0 28 7 WSW 9 30.25 0.00
KTXHOUST332 Houston Cutten Green Sec I 11/27 13:00:05 62.6 30.0 29 3 East 4 30.50 0.00
KTXHOUST178 Houston Schroeder Oaks Village 11/27 13:09:58 64.5 38.0 38 1 NE 6 30.40 0.00
KTXHOUST291 Houston Steeplechase 11/27 13:09:52 64.8 26.0 23 2 SE 4 30.05 0.00
KTXHOUST216 Houston Cutten Green 11/27 13:09:37 65.6 35.0 32 5 SE 11 30.43 0.00
KTXHOUST232 Houston Rolling Fork 11/27 13:05:26 62.4 34.0 35 2 NE 10 30.42 0.00
KTXHOUST349 Houston Champions Crossing 11/27 13:06:38 64.6 31.0 28 2 SSW 0 30.26 0.00
KTXHOUST407 Houston Northside 11/27 13:06:23 60.8 35.0 37 0

North 0 30.54 0.00
KTXHOUST218 Houston Woodland Trails West 11/27 13:09:54 65.1 35.0 33 1 NNE 5 30.41 0.00
KTXHOUST121 Houston Norchester, K5WH 11/27 13:00:27 68.5 34.0 28 8 SE 8 30.41 0.00
KTXHOUST170 Houston Champions Park 11/27 12:58:32 63.0 35.0 35 0 SE 2 30.42 0.00
KTXTEXAS12 Texas FM 1960 11/27 12:58:18 66.6 34.0 30 0 SSE 0 30.43 0.00
KTXHOUST233 Houston Woods of Wimbledon 11/27 13:09:59 71.2 41.0 34 0 West 0 30.43 0.00
KTXHOUST352 Houston Villa Toscana 11/27 13:09:56 65.6 32.0 29 0 ENE 2 30.39 0.00
KTXHOUST260 Houston Villages at Lakepointe 11/27 13:10:02 72.3 32.0 22 4 ENE 8 30.52 0.00
KTXHOUST169 Houston Lakewood Forest 11/27 13:05:06 62.9 36.0 36 0 NE 0 30.45 0.00
KTXHOUST261 Cypress Heatherwood Village 11/27 13:00:51 62.8 32.0 32 1 NE 2 29.89 0.00
KTXSPRIN88 Spring Champions Woods 11/27 12:57:08 64.4 36.0 35 4 ENE 0 30.16 0.00
KTXCYPRE11 Cypress Weiser Airpark 11/27 13:09:33 65.1 36.0 34 0 ENE 0 30.45 0.00
KTXCYPRE42 Cypress Great Oaks 11/27 13:05:23 64.5 38.0 37 1 East 1 30.45 0.00
KTXCYPRE79 Cypress Cypress Chase 11/27 13:10:01 65.7 29.0 25 0 South 2 30.43 0.00
KTXHOUST271 Houston Middlegate Village 11/27 13:09:57 72.3 31.0 22 0 SSE 1 30.25 0.00
KTXCYPRE5 Cypress NW Houston (Wincrest Falls) 11/27 13:10:01 62.4 34.0 34 0 WSW 0 30.35 0.00
KTXTOMBA14 Tomball Gettysburg 11/27 13:04:02 63.7 38.0 39 4 WNW 0 30.22 0.00
KTXSPRIN9 Spring Wimbledon 11/27 13:09:55 65.0 34.0 31 0 North 1 30.33 0.00
KTXSPRIN105 Spring Wimbledon Estates & Racquet Club 11/27 13:06:19 61.9 46.0 55 0 North 0 30.41 0.00
KTXSPRIN111 Spring Wimbledon Estates & Racquet Club 11/27 13:06:08 63.3 45.0 50 0 North 0 30.52 0.00
KTXTOMBA9 Tomball Spring Cypress/Eldridge 11/27 13:10:01 64.8 34.0 31 1 WSW 5 30.45 0.00
KTXCYPRE39 Cypress Longwood 11/27 13:05:17 64.1 35.0 34 1 ENE 3 30.44 0.00
KTXHOUST29 Houston Concord Colony - K5EBQ 11/27 13:02:05 66.2 38.0 35 0 East 0 30.45 0.00
KTXHOUST265 Houston Spring Shadows 11/27 13:06:04 64.0 35.0 34 2 ENE 4 30.44 0.00
KTXCYPRE80 Cypress Longwood 11/27 13:06:48 62.1 39.0 43 0 North 0 30.53 0.00
KDWH Houston Hooks Official Station 11/27 12:53:00 63.0 29.0 28 5 Variable --- 30.45 ---
KIAH Houston Intercontinental Official Station 11/27 12:53:00 63.0 31.0 30 0 North --- 30.45 ---
KMCJ Houston / Dunn Helistop Official Station 11/27 12:55:00 66.0 28.0 24 0 North --- 30.41 ---
KSGR Houston Hull Official Station 11/27 12:53:00 65.0 28.0 25 8 East --- 30.45 ---
KTXCYPRE54 Cypress Canyon Lakes West 11/27 13:09:53 65.2 37.0 35 2 East 6 30.53 0.00
KTXHOUST197 Cypress Canyon Lakes West 64.1 64.1 34.0 32 1 SSE 5 30.36 0.00